Date,TemperatureHighF,TemperatureAvgF,TemperatureLowF,DewpointHighF,DewpointAvgF,DewpointLowF,HumidityHigh,HumidityAvg,HumidityLow,PressureMaxIn,PressureMinIn,WindSpeedMaxMPH,WindSpeedAvgMPH,GustSpeedMaxMPH,PrecipitationSumIn
2014-1-1,70.1,55.5,44.2,53.0,46.3,38.0,92,74,33,30.11,30.00,3,0,6,0.01
2014-1-2,79.0,58.0,43.6,54.0,46.8,32.0,92,71,18,30.07,29.95,4,0,7,0.00
2014-1-3,65.3,55.3,49.0,58.0,51.4,47.0,92,87,69,30.01,29.88,4,0,6,0.02
2014-1-4,69.4,56.9,48.4,54.0,50.5,46.0,92,81,50,30.00,29.90,6,1,8,0.00
2014-1-5,81.0,59.0,42.6,49.0,36.7,7.0,92,57,6,30.11,29.99,3,0,7,0.01
2014-1-6,80.9,61.4,48.1,36.0,18.0,-29.0,60,27,1,30.17,30.05,6,1,10,0.00
2014-1-7,71.0,56.0,41.4,52.0,39.6,28.0,87,58,25,30.12,30.01,6,0,7,0.00
2014-1-8,68.5,56.3,48.5,54.0,50.2,45.0,91,81,51,30.11,29.98,6,1,9,0.00
2014-1-9,64.0,54.8,49.7,54.0,50.5,47.0,91,85,70,30.08,29.94,7,0,7,0.01
2014-1-10,69.9,55.8,45.1,55.0,49.6,43.0,92,81,49,30.11,29.99,5,0,8,0.01
2014-1-11,73.5,59.0,47.0,55.0,49.9,45.0,93,75,41,30.14,30.01,8,1,8,0.01
2014-1-12,72.1,58.4,50.4,55.0,50.7,44.0,92,78,38,30.12,30.00,3,0,6,0.00
2014-1-13,83.5,61.2,45.9,45.0,32.1,-14.0,82,48,2,30.28,30.12,14,1,14,0.00
2014-1-14,86.6,63.0,44.8,38.0,26.6,-12.0,67,37,2,30.27,30.14,5,0,7,0.00
2014-1-15,89.9,65.1,48.1,36.0,24.8,-10.0,64,32,2,30.19,30.06,5,1,9,0.00
2014-1-16,90.9,65.5,48.3,36.0,19.6,-99.9,53,29,1,30.10,29.98,4,0,7,0.00
2014-1-17,88.8,65.5,50.3,39.0,15.5,-99.9,60,28,1,30.09,29.97,5,1,9,0.00
2014-1-18,82.9,60.4,43.9,43.0,32.8,9.0,77,46,6,30.07,29.95,6,0,7,0.00
2014-1-19,79.2,57.5,43.5,48.0,37.4,9.0,83,57,7,30.08,30.00,5,0,7,0.00
2014-1-20,81.6,61.7,43.7,47.0,38.6,17.0,87,52,9,30.14,30.02,5,1,8,0.00
2014-1-21,76.9,60.7,47.3,52.0,44.3,24.0,85,59,14,30.12,30.01,3,0,9,0.00
2014-1-22,73.0,60.3,50.7,57.0,51.1,42.0,92,75,33,30.01,29.86,6,1,8,0.00
2014-1-23,67.8,58.3,51.9,55.0,51.3,45.0,90,79,49,30.07,29.87,6,1,9,0.00
2014-1-24,73.0,61.2,53.4,55.0,51.5,36.0,91,73,26,30.18,30.06,6,0,10,0.00
2014-1-25,74.3,63.9,54.1,56.0,50.3,42.0,86,64,32,30.18,30.07,6,1,9,0.00
2014-1-26,69.1,59.8,51.6,56.0,51.8,48.0,90,76,53,30.12,29.99,5,1,7,0.00
2014-1-27,70.2,59.9,51.8,56.0,52.7,49.0,90,78,61,30.07,29.97,7,1,9,0.00
2014-1-28,69.6,59.9,51.5,58.0,54.4,48.0,92,83,64,30.11,30.00,6,1,8,0.00
2014-1-29,71.6,61.7,54.1,59.0,55.4,50.0,92,81,49,30.06,29.90,6,1,7,0.00
2014-1-30,62.9,60.4,57.8,57.0,54.4,51.0,87,80,74,29.94,29.85,6,2,12,0.00
2014-1-31,65.3,60.5,55.5,53.0,42.9,15.0,83,57,16,29.95,29.85,18,4,24,0.00
2014-2-1,67.9,57.0,43.5,39.0,32.2,24.0,72,42,21,30.03,29.91,10,2,19,0.00
2014-2-2,63.8,53.4,43.2,51.0,40.3,24.0,85,63,29,30.07,29.93,11,2,15,0.10
2014-2-3,63.8,54.9,46.0,47.0,44.7,41.0,90,70,46,29.95,29.86,10,2,14,0.04
2014-2-4,64.4,55.0,44.6,50.0,46.0,41.0,89,73,54,30.05,29.95,9,1,10,0.00
2014-2-5,65.1,55.7,44.3,49.0,45.5,41.0,89,70,49,30.10,29.98,8,1,11,0.00
2014-2-6,64.7,56.4,52.9,53.0,49.5,47.0,91,78,60,30.05,29.95,5,1,10,0.19
2014-2-7,64.8,57.2,50.5,56.0,51.1,48.0,93,81,60,30.18,30.00,8,1,9,0.01
2014-2-8,67.2,59.8,53.9,55.0,52.0,49.0,88,76,56,30.25,30.16,9,2,13,0.00
2014-2-9,67.6,61.0,54.6,56.0,53.6,51.0,87,77,60,30.19,30.07,5,1,9,0.00
2014-2-10,70.0,60.6,54.0,57.0,53.7,51.0,89,79,56,30.12,29.97,6,1,9,0.00
2014-2-11,74.1,61.5,54.1,58.0,53.9,48.0,92,79,42,30.07,29.98,7,1,9,0.00
2014-2-12,80.9,64.0,49.2,56.0,47.3,35.0,93,61,22,30.11,29.99,5,1,7,0.01
2014-2-13,78.5,63.1,49.0,57.0,49.5,45.0,88,64,35,30.04,29.93,7,1,10,0.00
2014-2-14,77.5,62.2,47.0,56.0,49.6,44.0,91,67,35,30.02,29.91,6,1,7,0.00
2014-2-15,78.5,61.8,48.5,58.0,52.2,46.0,92,73,40,30.00,29.91,5,0,7,0.00
2014-2-16,69.8,60.3,53.9,58.0,54.9,51.0,91,83,65,30.04,29.94,5,1,9,0.01
2014-2-17,69.6,58.7,48.4,57.0,53.0,46.0,92,82,62,30.05,29.96,6,1,11,0.01
2014-2-18,67.9,60.6,55.5,53.0,51.6,50.0,86,73,56,30.04,29.93,8,1,9,0.00
2014-2-19,67.9,59.4,51.6,55.0,52.5,49.0,90,79,57,29.98,29.86,8,1,11,0.00
2014-2-20,83.4,63.5,48.6,55.0,48.8,33.0,91,65,17,30.00,29.90,6,1,6,0.01
2014-2-21,76.5,62.4,52.7,58.0,51.8,42.0,90,71,32,29.96,29.84,5,1,8,0.00
2014-2-22,74.2,61.0,52.4,57.0,51.2,41.0,92,74,31,29.91,29.82,6,1,10,0.01
2014-2-23,73.6,60.9,51.3,56.0,51.5,43.0,92,74,34,29.97,29.87,6,1,8,0.00
2014-2-24,72.6,61.5,49.9,56.0,52.5,47.0,92,74,48,30.01,29.89,9,1,10,0.00
2014-2-25,69.4,62.2,54.4,54.0,52.4,49.0,84,71,52,30.02,29.93,7,2,11,0.00
2014-2-26,68.6,62.7,57.5,56.0,53.1,49.0,82,71,55,30.06,29.98,8,2,11,0.00
2014-2-27,71.0,64.0,59.7,60.0,57.8,54.0,92,81,59,29.99,29.83,8,2,11,0.88
2014-2-28,63.8,60.9,58.3,61.0,56.8,53.0,91,86,79,29.82,29.62,12,4,21,1.46
2014-3-1,66.8,58.1,53.6,57.0,53.4,50.0,91,84,67,29.94,29.73,11,2,17,0.31
2014-3-2,66.8,58.7,54.5,56.0,53.9,52.0,91,85,62,30.13,29.94,3,1,6,0.10
2014-3-3,71.1,59.3,50.4,57.0,52.3,48.0,93,79,51,30.11,29.99,8,2,13,0.01
2014-3-4,68.1,61.0,53.5,58.0,55.0,51.0,91,81,65,30.02,29.94,8,1,11,0.00
2014-3-5,74.7,62.6,52.3,60.0,55.7,50.0,92,79,56,30.06,29.97,10,1,14,0.00
2014-3-6,70.2,63.8,58.1,61.0,57.9,55.0,90,81,68,30.05,29.92,6,2,11,0.00
2014-3-7,73.6,63.6,55.1,59.0,53.1,45.0,92,71,39,29.98,29.87,8,1,11,0.00
2014-3-8,86.0,67.2,49.5,55.0,40.4,22.0,90,49,10,30.08,29.93,12,1,15,0.00
2014-3-9,87.9,70.8,53.7,48.0,30.2,4.0,71,31,4,30.11,30.00,14,2,15,0.00
2014-3-10,79.7,65.8,50.1,57.0,45.4,34.0,86,52,20,30.04,29.94,7,1,11,0.00
2014-3-11,75.2,62.9,51.0,58.0,51.7,38.0,90,71,27,29.97,29.87,5,1,8,0.00
2014-3-12,81.3,63.6,51.7,57.0,47.6,14.0,92,67,8,29.98,29.88,16,2,17,0.01
2014-3-13,70.0,63.6,57.1,54.0,51.9,48.0,82,67,47,29.99,29.88,8,1,11,0.00
2014-3-14,73.4,61.8,50.8,57.0,52.8,48.0,90,74,54,30.08,29.98,7,1,10,0.00
2014-3-15,85.6,66.5,52.0,59.0,52.2,42.0,91,64,31,30.16,30.07,8,2,15,0.00
2014-3-16,92.9,70.8,51.8,52.0,38.9,0.0,86,46,3,30.19,30.04,9,1,15,0.00
2014-3-17,77.1,64.1,54.0,59.0,52.5,41.0,86,68,28,30.04,29.75,11,2,15,0.00
2014-3-18,75.3,65.2,58.0,57.0,54.5,53.0,84,70,48,29.91,29.77,8,2,9,0.00
2014-3-19,80.2,64.8,51.2,59.0,54.0,41.0,92,71,25,30.02,29.91,11,2,11,0.00
2014-3-20,76.0,63.4,56.2,58.0,54.3,45.0,92,75,35,30.02,29.89,7,1,12,0.01
2014-3-21,68.6,62.1,55.2,54.0,51.4,49.0,87,69,50,29.99,29.91,7,2,11,0.00
2014-3-22,69.6,62.8,56.1,53.0,50.6,48.0,81,65,51,30.08,29.96,9,2,16,0.00
2014-3-23,70.5,60.3,51.6,55.0,52.0,48.0,88,75,57,30.11,29.98,11,2,11,0.00
2014-3-24,69.3,62.4,57.4,56.0,54.4,53.0,84,75,62,30.09,29.96,6,1,12,0.00
2014-3-25,66.5,61.9,58.3,55.0,53.9,52.0,82,75,62,30.01,29.87,6,1,8,0.00
2014-3-26,67.4,61.9,57.8,54.0,51.1,46.0,87,69,46,29.95,29.86,19,6,22,0.04
2014-3-27,70.2,62.1,51.5,52.0,48.7,44.0,87,63,42,30.06,29.93,14,3,16,0.00
2014-3-28,71.4,62.5,53.7,54.0,51.2,48.0,84,68,47,30.13,30.04,10,2,12,0.00
2014-3-29,76.2,63.4,51.5,55.0,51.9,48.0,90,69,41,30.12,29.93,13,2,14,0.00
2014-3-30,73.8,64.6,58.0,55.0,48.8,40.0,80,60,30,30.02,29.94,20,5,20,0.00
2014-3-31,67.0,59.8,52.7,52.0,49.2,46.0,87,69,49,30.02,29.94,11,3,17,0.00
2014-4-1,65.8,59.8,54.1,53.0,45.6,34.0,85,61,31,29.99,29.92,16,4,18,0.14
2014-4-2,64.6,56.8,48.0,51.0,45.1,39.0,91,67,42,30.04,29.91,18,4,22,0.19
2014-4-3,69.5,58.2,46.0,51.0,46.5,42.0,87,67,42,30.11,30.00,12,2,13,0.00
2014-4-4,67.3,59.2,53.0,51.0,48.1,43.0,86,69,42,30.02,29.92,10,2,13,0.00
2014-4-5,70.5,61.0,52.2,54.0,49.4,39.0,86,68,32,30.02,29.90,10,2,14,0.00
2014-4-6,84.3,66.2,49.7,53.0,44.6,31.0,90,54,15,30.07,29.97,13,2,13,0.00
2014-4-7,88.5,69.7,52.7,50.0,44.6,27.0,81,47,11,30.07,29.99,10,2,13,0.00
2014-4-8,94.0,72.3,54.7,54.0,45.6,30.0,86,47,10,30.07,29.95,8,2,13,0.00
2014-4-9,90.1,69.3,54.7,55.0,47.6,33.0,83,52,13,30.00,29.90,9,1,13,0.00
2014-4-10,78.3,63.5,52.7,57.0,50.6,40.0,91,67,28,29.95,29.86,5,1,7,0.00
2014-4-11,80.5,66.1,56.5,56.0,51.3,35.0,85,64,21,29.91,29.81,10,2,12,0.00
2014-4-12,68.0,62.5,58.0,54.0,51.0,49.0,85,67,52,29.95,29.85,13,2,14,0.00
2014-4-13,70.1,62.7,56.4,52.0,50.7,48.0,83,66,51,30.01,29.92,9,2,10,0.00
2014-4-14,81.7,66.4,52.2,54.0,50.6,44.0,89,61,26,30.03,29.93,8,2,12,0.00
2014-4-15,79.1,64.7,56.8,57.0,53.7,41.0,91,71,26,29.98,29.79,6,2,9,0.00
2014-4-16,71.5,63.5,57.8,56.0,54.2,53.0,87,73,54,29.86,29.76,11,2,11,0.00
2014-4-17,69.1,63.6,60.8,56.0,54.8,54.0,81,74,61,29.89,29.81,9,3,12,0.00
2014-4-18,71.5,65.7,61.4,56.0,54.5,52.0,78,68,53,29.91,29.83,10,2,11,0.00
2014-4-19,76.1,65.4,55.5,58.0,55.3,53.0,90,72,47,30.02,29.90,9,2,16,0.00
2014-4-20,78.4,67.1,57.8,59.0,56.7,53.0,88,71,45,30.04,29.96,8,2,11,0.00
2014-4-21,80.8,67.4,59.3,60.0,57.2,55.0,90,72,44,30.03,29.89,6,2,10,0.00
2014-4-22,72.7,65.7,60.9,56.0,53.0,47.0,83,65,44,29.95,29.85,7,2,13,0.00
2014-4-23,75.5,65.0,54.6,55.0,50.3,37.0,86,62,27,29.94,29.86,7,2,10,0.00
2014-4-24,76.9,66.2,53.5,57.0,51.1,41.0,88,62,32,29.96,29.86,9,2,11,0.00
2014-4-25,70.9,64.0,57.1,58.0,55.0,52.0,86,73,57,29.91,29.77,11,4,18,0.17
2014-4-26,69.0,61.1,55.1,52.0,45.5,37.0,86,58,35,29.95,29.74,19,8,27,0.01
2014-4-27,71.9,62.4,52.0,54.0,49.3,40.0,85,65,33,29.99,29.92,10,2,13,0.00
2014-4-28,81.5,67.4,57.6,58.0,53.0,41.0,88,64,25,29.99,29.84,9,2,12,0.00
2014-4-29,96.2,77.9,56.0,55.0,26.9,-20.0,87,33,1,30.00,29.90,12,2,19,0.00
2014-4-30,94.2,79.0,57.9,45.0,0.8,-99.9,57,17,1,29.98,29.87,16,4,21,0.00
2014-5-1,95.8,77.9,59.6,47.0,19.1,-99.9,53,22,1,30.00,29.90,13,3,22,0.00
2014-5-2,94.6,76.7,57.5,57.0,38.4,13.0,73,34,5,29.95,29.84,7,2,11,0.00
2014-5-3,86.7,74.1,59.8,58.0,50.4,35.0,82,48,16,29.89,29.82,6,2,11,0.00
2014-5-4,80.3,69.1,60.1,60.0,53.7,41.0,83,60,26,29.95,29.86,7,2,9,0.00
2014-5-5,72.5,65.5,60.0,57.0,54.3,51.0,85,68,52,29.99,29.89,9,2,12,0.00
2014-5-6,69.9,63.2,57.0,51.0,48.0,41.0,73,59,37,29.89,29.77,22,4,29,0.00
2014-5-7,72.8,63.0,56.4,54.0,51.2,48.0,82,67,42,29.98,29.82,10,2,14,0.00
2014-5-8,74.0,64.3,56.3,53.0,50.8,48.0,78,62,45,30.03,29.95,10,2,13,0.00
2014-5-9,72.7,64.6,55.4,57.0,54.4,52.0,87,71,52,30.04,29.93,10,2,13,0.00
2014-5-10,74.5,65.8,59.7,58.0,54.9,47.0,85,69,42,29.94,29.77,8,2,14,0.00
2014-5-11,81.6,68.5,56.0,55.0,43.5,27.0,85,48,14,29.92,29.80,17,3,23,0.00
2014-5-12,94.3,75.6,54.7,51.0,27.3,-99.9,79,32,1,29.98,29.89,15,3,21,0.00
2014-5-13,97.8,79.3,58.3,46.0,26.4,-19.0,58,24,1,30.04,29.95,15,3,18,0.00
2014-5-14,103.0,82.4,61.5,49.0,4.3,-99.9,48,19,1,30.00,29.88,12,2,18,0.00
2014-5-15,103.5,83.3,62.0,51.0,16.2,-99.9,66,26,1,29.97,29.87,10,2,15,0.00
2014-5-16,89.4,77.9,63.5,62.0,51.2,39.0,75,44,18,29.93,29.82,6,1,12,0.00
2014-5-17,77.8,69.7,64.5,63.0,61.0,59.0,89,75,55,29.88,29.79,7,2,12,0.00
2014-5-18,74.7,69.1,63.4,60.0,58.7,57.0,85,70,56,29.86,29.80,9,3,13,0.00
2014-5-19,73.6,67.7,62.3,59.0,56.2,53.0,81,67,53,29.91,29.84,8,2,13,0.00
2014-5-20,73.3,66.1,60.7,55.0,51.6,47.0,78,61,41,29.96,29.90,10,3,17,0.00
2014-5-21,73.5,65.9,58.7,55.0,53.2,51.0,79,65,47,29.96,29.90,12,2,13,0.00
2014-5-22,72.7,65.9,60.5,57.0,55.3,54.0,79,69,54,29.98,29.89,8,2,11,0.00
2014-5-23,74.8,67.4,62.0,57.0,56.3,55.0,81,68,52,29.99,29.92,8,2,12,0.00
2014-5-24,73.3,66.5,61.6,59.0,57.4,56.0,82,73,59,30.00,29.90,6,1,11,0.00
2014-5-25,78.8,69.6,64.7,61.0,59.3,58.0,81,71,53,29.95,29.84,12,2,13,0.00
2014-5-26,83.9,72.0,64.6,62.0,60.6,59.0,82,68,46,29.94,29.86,8,2,10,0.00
2014-5-27,82.5,72.1,65.9,63.0,61.4,60.0,83,70,49,29.95,29.85,7,2,13,0.00
2014-5-28,76.6,70.0,65.4,63.0,61.0,59.0,83,73,58,29.91,29.80,8,2,11,0.00
2014-5-29,77.6,70.3,64.0,61.0,59.0,58.0,84,68,52,29.89,29.82,6,2,11,0.00
2014-5-30,85.0,70.7,58.9,63.0,58.2,51.0,90,67,38,29.86,29.78,7,2,10,0.00
2014-5-31,82.9,70.6,61.1,61.0,58.0,52.0,87,66,37,29.88,29.81,8,2,10,0.00
2014-6-1,83.7,70.2,57.7,61.0,56.7,51.0,85,65,33,29.86,29.77,8,2,11,0.00
2014-6-2,80.0,68.5,58.9,60.0,56.8,53.0,88,68,45,29.85,29.79,9,2,12,0.00
2014-6-3,84.8,69.7,57.1,59.0,55.3,52.0,87,63,38,29.88,29.77,8,2,12,0.00
2014-6-4,84.7,69.9,56.8,59.0,55.9,50.0,86,63,37,29.84,29.75,8,2,11,0.00
2014-6-5,83.5,69.3,59.4,60.0,57.7,53.0,87,68,37,29.83,29.74,8,2,12,0.00
2014-6-6,78.4,68.0,59.8,59.0,57.6,56.0,88,70,49,29.82,29.76,8,2,11,0.00
2014-6-7,76.1,68.3,63.6,60.0,57.5,56.0,80,69,54,29.82,29.73,6,2,12,0.00
2014-6-8,78.7,70.3,63.3,62.0,59.2,57.0,83,69,53,29.80,29.70,7,2,11,0.00
2014-6-9,78.1,67.6,62.0,63.0,60.4,58.0,89,78,59,29.80,29.72,8,2,14,0.00
2014-6-10,72.9,68.4,65.6,61.0,59.6,57.0,82,74,63,29.87,29.74,8,2,11,0.00
2014-6-11,80.1,70.3,64.8,60.0,57.6,55.0,81,65,50,29.89,29.82,9,2,12,0.00
2014-6-12,79.9,70.2,63.3,60.0,58.1,57.0,82,66,48,29.92,29.88,11,2,14,0.00
2014-6-13,79.2,69.5,62.8,58.0,56.9,56.0,81,66,46,29.92,29.83,7,2,12,0.00
2014-6-14,81.2,70.4,62.2,61.0,57.9,56.0,83,66,46,29.86,29.77,6,2,11,0.00
2014-6-15,78.1,69.6,64.5,60.0,58.4,57.0,81,68,53,29.86,29.79,12,2,12,0.00
2014-6-16,79.9,70.0,63.7,59.0,56.8,55.0,75,64,43,29.89,29.82,10,2,11,0.00
2014-6-17,75.9,68.2,60.3,60.0,56.8,54.0,85,68,48,29.91,29.84,11,2,15,0.00
2014-6-18,75.8,68.4,60.3,59.0,56.4,54.0,82,67,51,29.91,29.85,8,2,11,0.00
2014-6-19,84.0,71.3,60.4,62.0,57.0,44.0,88,64,25,29.92,29.85,8,2,13,0.00
2014-6-20,81.3,71.1,61.2,64.0,61.2,58.0,88,72,48,29.90,29.83,7,2,12,0.00
2014-6-21,76.7,69.8,62.4,64.0,61.8,60.0,90,77,59,29.87,29.81,9,2,12,0.00
2014-6-22,77.4,71.1,65.8,63.0,60.2,59.0,82,69,55,29.89,29.83,10,2,10,0.00
2014-6-23,76.9,71.4,66.5,62.0,60.0,58.0,81,68,56,29.91,29.84,7,2,12,0.00
2014-6-24,80.1,71.5,64.8,63.0,61.0,60.0,84,70,55,29.94,29.84,9,2,12,0.00
2014-6-25,77.9,71.3,65.9,63.0,61.5,60.0,84,72,58,29.89,29.81,9,2,11,0.00
2014-6-26,79.4,72.3,66.7,64.0,62.1,59.0,83,71,55,29.89,29.80,9,2,12,0.00
2014-6-27,80.1,72.8,67.3,65.0,62.6,61.0,83,71,54,29.85,29.79,7,2,13,0.00
2014-6-28,79.5,71.9,67.7,65.0,63.0,62.0,84,74,60,29.84,29.77,7,2,13,0.00
2014-6-29,79.7,72.1,67.1,66.0,63.5,61.0,83,75,60,29.86,29.80,9,2,12,0.00
2014-6-30,77.4,70.5,66.9,65.0,62.9,62.0,84,77,64,29.89,29.80,7,2,12,0.00
2014-7-1,82.6,72.7,66.9,67.0,63.5,61.0,82,74,55,29.86,29.77,9,2,11,0.00
2014-7-2,83.0,72.4,65.9,66.0,63.1,61.0,85,73,53,29.88,29.79,8,2,11,0.00
2014-7-3,87.5,74.6,65.8,66.0,64.2,62.0,88,72,45,29.90,29.79,7,2,12,0.00
2014-7-4,83.4,73.7,67.5,67.0,64.7,63.0,87,74,54,29.98,29.87,8,2,10,0.00
2014-7-5,93.5,78.8,67.5,67.0,60.0,46.0,88,57,21,30.00,29.92,6,2,11,0.00
2014-7-6,92.3,79.1,68.9,68.0,61.7,44.0,86,59,19,29.98,29.85,11,2,12,0.00
2014-7-7,84.9,76.2,67.9,67.0,62.9,53.0,88,66,34,29.89,29.80,7,1,11,0.00
2014-7-8,85.4,75.3,67.8,66.0,64.4,60.0,88,71,45,29.93,29.83,6,2,10,0.00
2014-7-9,86.4,75.4,68.4,66.0,63.6,62.0,80,68,47,29.93,29.83,8,2,11,0.00
2014-7-10,85.4,74.7,68.2,65.0,62.7,61.0,81,67,48,29.94,29.84,10,2,12,0.00
2014-7-11,85.1,74.0,68.1,63.0,61.9,61.0,82,67,44,29.97,29.91,8,2,12,0.00
2014-7-12,82.9,73.5,65.4,65.0,62.5,60.0,87,69,50,29.98,29.87,8,2,11,0.00
2014-7-13,81.1,74.1,66.7,66.0,64.1,61.0,84,71,60,29.90,29.82,7,2,12,0.00
2014-7-14,80.1,72.6,69.6,67.0,65.0,64.0,82,77,63,29.97,29.87,7,2,13,0.00
2014-7-15,79.2,72.7,69.2,67.0,64.7,63.0,85,76,65,30.02,29.94,8,2,11,0.00
2014-7-16,82.1,74.1,68.7,64.0,62.3,60.0,81,68,50,30.02,29.92,12,2,12,0.00
2014-7-17,81.1,73.1,66.0,62.0,60.1,58.0,83,65,47,30.01,29.93,12,3,16,0.00
2014-7-18,81.4,72.5,64.4,64.0,60.9,59.0,87,68,48,29.99,29.90,9,2,13,0.00
2014-7-19,76.1,71.0,66.3,64.0,62.2,61.0,84,74,63,29.95,29.88,5,1,9,0.00
2014-7-20,82.2,73.4,67.1,64.0,62.5,61.0,83,70,51,29.98,29.90,9,2,12,0.00
2014-7-21,82.3,73.7,65.7,64.0,62.4,61.0,86,69,52,30.04,29.94,9,2,15,0.00
2014-7-22,86.1,75.0,64.7,66.0,61.4,57.0,88,65,42,30.02,29.94,12,3,18,0.00
2014-7-23,90.0,76.9,63.9,65.0,60.7,54.0,86,61,32,29.97,29.84,9,2,14,0.00
2014-7-24,94.2,79.0,64.7,65.0,62.1,57.0,87,59,29,29.85,29.69,9,2,13,0.00
2014-7-25,83.0,75.6,70.4,68.0,66.2,65.0,84,73,59,29.89,29.80,10,2,11,0.00
2014-7-26,86.9,75.7,67.9,67.0,65.3,62.0,87,71,50,29.96,29.86,7,2,11,0.00
2014-7-27,88.3,76.9,69.0,68.0,63.3,52.0,83,65,38,29.99,29.87,7,2,12,0.00
2014-7-28,91.9,78.3,71.4,67.0,61.4,41.0,83,61,21,30.03,29.93,13,2,13,0.01
2014-7-29,88.4,77.5,67.7,65.0,61.6,53.0,85,61,30,30.00,29.89,11,1,13,0.00
2014-7-30,90.1,77.6,68.7,67.0,64.0,58.0,87,65,38,29.93,29.84,7,2,11,0.00
2014-7-31,91.1,76.5,68.5,66.0,64.4,61.0,88,68,43,29.90,29.80,8,2,11,0.00
2014-8-1,84.0,75.7,69.0,67.0,65.2,63.0,85,71,55,29.89,29.81,7,1,10,0.00
2014-8-2,81.3,74.4,68.3,69.0,66.1,64.0,85,76,63,29.92,29.83,6,1,10,0.00
2014-8-3,89.9,77.6,73.4,73.0,68.8,64.0,89,76,44,29.91,29.82,7,1,14,0.12
2014-8-4,88.8,76.5,67.4,70.0,65.0,54.0,90,70,31,29.96,29.89,7,2,10,0.00
2014-8-5,88.2,72.0,61.0,63.0,59.9,49.0,90,69,26,30.00,29.93,8,2,13,0.00
2014-8-6,80.7,71.8,65.4,61.0,60.1,59.0,83,68,48,30.03,29.91,10,2,11,0.00
2014-8-7,80.7,72.2,64.5,63.0,61.2,59.0,85,69,52,29.96,29.84,8,2,11,0.00
2014-8-8,81.4,73.3,67.1,65.0,63.0,61.0,84,71,55,29.92,29.83,7,2,10,0.00
2014-8-9,83.6,73.9,68.1,66.0,64.2,62.0,83,73,55,29.95,29.87,10,2,11,0.00
2014-8-10,88.1,76.0,67.7,67.0,64.3,62.0,87,69,41,29.95,29.86,8,2,10,0.00
2014-8-11,87.7,75.1,66.5,67.0,64.4,62.0,87,71,48,29.93,29.86,8,2,11,0.00
2014-8-12,85.2,75.0,67.8,66.0,64.1,62.0,85,70,47,29.95,29.85,8,2,13,0.00
2014-8-13,83.1,73.2,66.9,65.0,63.0,61.0,85,71,52,29.95,29.87,9,2,12,0.00
2014-8-14,87.8,73.9,63.4,65.0,62.1,53.0,88,69,31,29.93,29.85,7,1,8,0.00
2014-8-15,93.6,76.2,64.5,65.0,62.2,54.0,88,65,26,29.95,29.87,10,2,11,0.00
2014-8-16,94.0,77.8,66.0,65.0,59.8,49.0,86,59,23,29.97,29.87,12,2,13,0.00
2014-8-17,90.3,76.8,67.0,66.0,61.6,54.0,85,62,32,29.93,29.80,8,1,12,0.00
2014-8-18,87.5,74.4,65.0,66.0,63.0,56.0,86,69,34,29.85,29.75,6,2,12,0.00
2014-8-19,80.0,73.6,69.8,65.0,63.2,61.0,79,70,57,29.87,29.80,9,2,13,0.00
2014-8-20,81.9,74.9,69.4,63.0,61.5,58.0,77,64,46,29.91,29.83,9,2,11,0.00
2014-8-21,85.2,74.2,66.0,65.0,63.3,61.0,85,70,49,29.92,29.84,8,2,12,0.00
2014-8-22,85.9,74.6,66.6,67.0,64.5,62.0,86,72,52,29.95,29.86,7,2,9,0.00
2014-8-23,85.7,74.3,67.1,63.0,62.0,56.0,83,67,38,29.93,29.81,8,2,11,0.00
2014-8-24,84.7,73.7,66.5,63.0,61.5,59.0,84,67,43,29.88,29.78,10,2,12,0.00
2014-8-25,83.9,73.0,65.4,64.0,61.5,59.0,85,68,45,29.91,29.82,8,2,11,0.00
2014-8-26,87.4,75.3,64.7,64.0,61.5,59.0,85,64,39,29.94,29.87,9,2,11,0.00
2014-8-27,95.2,79.4,65.4,66.0,58.8,44.0,86,55,20,29.99,29.92,9,2,13,0.00
2014-8-28,95.6,80.1,66.9,63.0,53.3,26.0,74,44,10,29.97,29.83,10,2,18,0.00
2014-8-29,88.4,75.5,64.8,65.0,61.5,56.0,85,64,33,29.85,29.75,8,2,10,0.00
2014-8-30,89.0,75.4,65.4,67.0,64.4,60.0,89,70,44,29.81,29.69,7,1,9,0.00
2014-8-31,84.0,75.8,70.0,69.0,67.4,66.0,89,76,55,29.81,29.73,7,2,10,0.00
2014-9-1,82.9,75.1,69.1,67.0,65.2,63.0,85,72,56,29.81,29.73,7,2,11,0.00
2014-9-2,83.6,75.4,67.9,66.0,64.7,63.0,85,70,53,29.82,29.73,8,2,10,0.00
2014-9-3,84.6,75.5,69.5,66.0,63.8,62.0,81,68,50,29.77,29.66,7,2,11,0.00
2014-9-4,82.3,73.9,68.0,64.0,63.3,62.0,82,70,53,29.76,29.69,10,2,12,0.00
2014-9-5,85.9,73.9,66.0,66.0,64.0,62.0,87,73,50,29.86,29.76,9,2,11,0.00
2014-9-6,91.2,76.8,65.9,68.0,63.8,60.0,88,66,41,29.89,29.74,9,1,11,0.00
2014-9-7,97.0,80.9,67.6,67.0,61.0,45.0,84,55,17,29.79,29.69,6,1,9,0.00
2014-9-8,86.8,77.8,73.0,70.0,65.6,56.0,82,68,37,29.85,29.76,3,0,6,0.09
2014-9-9,91.0,78.1,68.2,68.0,61.6,51.0,84,60,29,29.89,29.80,7,2,12,0.00
2014-9-10,91.0,76.2,62.8,67.0,61.1,49.0,91,63,27,29.88,29.75,7,1,11,0.00
2014-9-11,94.0,79.1,67.1,68.0,61.4,50.0,89,60,25,29.84,29.74,10,2,12,0.00
2014-9-12,93.2,78.7,68.0,69.0,65.3,62.0,89,66,39,29.81,29.70,7,1,11,0.00
2014-9-13,95.6,80.0,67.8,69.0,65.1,59.0,89,64,34,29.75,29.64,9,2,12,0.00
2014-9-14,101.0,83.2,69.7,71.0,64.0,55.0,87,57,28,29.72,29.64,8,1,12,0.00
2014-9-15,97.6,83.9,72.0,72.0,65.0,55.0,87,57,28,29.77,29.67,11,2,16,0.00
2014-9-16,100.5,85.1,72.8,69.0,62.2,54.0,79,50,24,29.74,29.64,9,2,17,0.00
2014-9-17,97.3,83.6,74.3,68.0,61.5,48.0,73,50,23,29.75,29.66,13,2,18,0.00
2014-9-18,83.7,74.8,66.6,68.0,63.9,59.0,83,69,54,29.85,29.75,9,2,12,0.00
2014-9-19,81.3,74.4,68.1,65.0,63.1,61.0,85,69,52,29.88,29.79,8,2,12,0.00
2014-9-20,81.6,72.5,66.2,66.0,63.2,60.0,86,73,54,29.92,29.84,8,1,9,0.00
2014-9-21,81.8,72.6,65.7,64.0,62.5,61.0,85,71,50,29.96,29.87,9,2,13,0.00
2014-9-22,85.2,72.0,61.0,66.0,62.9,58.0,91,75,50,29.95,29.86,7,1,9,0.00
2014-9-23,88.5,72.6,60.8,67.0,62.5,58.0,91,73,38,29.95,29.84,10,1,11,0.01
2014-9-24,93.5,75.3,61.2,66.0,59.3,40.0,91,63,16,29.88,29.78,7,1,12,0.00
2014-9-25,89.7,77.2,67.4,64.0,60.7,47.0,81,60,25,29.89,29.81,12,2,15,0.00
2014-9-26,82.7,73.3,65.6,67.0,63.3,59.0,89,72,50,29.86,29.78,7,2,14,0.00
2014-9-27,77.8,69.7,60.9,62.0,59.3,53.0,90,71,45,29.87,29.76,7,2,13,0.00
2014-9-28,77.1,70.1,64.2,62.0,60.0,59.0,86,71,53,29.89,29.80,9,2,12,0.02
2014-9-29,82.5,70.2,60.0,62.0,59.1,56.0,89,70,42,29.91,29.80,11,2,14,0.00
2014-9-30,87.7,72.6,60.2,65.0,60.2,52.0,87,68,29,29.84,29.71,9,1,12,0.00
2014-10-1,81.3,72.0,63.6,65.0,63.0,60.0,90,74,53,29.84,29.72,5,1,9,0.00
2014-10-2,100.6,79.5,62.4,62.0,42.7,-18.0,89,45,1,29.93,29.83,8,1,11,0.01
2014-10-3,102.0,78.9,58.9,52.0,35.0,-17.0,72,34,1,29.99,29.87,11,1,13,0.00
2014-10-4,95.3,75.7,58.3,67.0,55.0,38.0,85,55,14,29.91,29.80,5,1,8,0.00
2014-10-5,89.2,76.2,66.1,69.0,60.5,40.0,92,66,18,29.88,29.79,8,1,10,0.00
2014-10-6,91.6,75.2,61.0,67.0,53.9,35.0,92,57,14,29.88,29.78,6,1,10,0.01
2014-10-7,93.5,76.2,63.0,65.0,55.3,31.0,91,58,11,29.87,29.76,4,1,8,0.00
2014-10-8,85.6,73.4,62.6,66.0,61.6,55.0,90,69,39,29.84,29.75,7,1,10,0.00
2014-10-9,78.0,72.4,66.6,65.0,61.8,60.0,87,70,57,29.92,29.84,8,1,9,0.00
2014-10-10,81.9,72.5,64.3,65.0,62.7,60.0,88,73,52,29.96,29.87,7,1,10,0.00
2014-10-11,82.0,71.1,62.3,66.0,63.3,59.0,89,78,55,29.96,29.85,7,1,10,0.00
2014-10-12,77.4,70.9,64.9,65.0,63.7,62.0,90,78,62,29.90,29.81,6,1,11,0.00
2014-10-13,78.7,71.9,66.2,66.0,64.5,62.0,88,78,64,29.98,29.90,6,1,8,0.00
2014-10-14,77.3,71.2,68.2,65.0,61.8,59.0,86,73,58,29.97,29.87,8,1,9,0.00
2014-10-15,79.0,71.4,64.7,62.0,58.8,53.0,82,66,43,29.97,29.89,8,2,13,0.00
2014-10-16,79.0,69.0,60.3,62.0,59.3,56.0,89,73,47,29.99,29.88,7,1,12,0.00
2014-10-17,78.6,68.6,59.5,63.0,59.6,56.0,90,74,52,29.95,29.88,9,1,12,0.00
2014-10-18,78.4,69.2,60.6,62.0,58.2,55.0,88,70,46,29.91,29.79,10,1,10,0.00
2014-10-19,79.3,68.4,58.3,64.0,59.9,55.0,89,76,50,29.89,29.79,6,1,9,0.00
2014-10-20,77.5,69.2,62.0,64.0,61.8,59.0,90,78,60,29.91,29.82,7,1,10,0.00
2014-10-21,79.6,70.2,63.3,64.0,61.6,59.0,88,75,55,29.90,29.79,7,1,9,0.00
2014-10-22,84.7,69.5,56.7,65.0,60.0,54.0,91,74,43,29.93,29.83,5,1,8,0.00
2014-10-23,86.9,70.5,56.9,63.0,58.5,52.0,91,69,32,29.96,29.86,5,0,7,0.01
2014-10-24,87.2,70.3,56.0,63.0,55.4,39.0,91,65,19,29.96,29.88,4,1,8,0.00
2014-10-25,82.8,71.5,63.3,65.0,60.6,55.0,90,71,38,30.02,29.94,10,2,11,0.00
2014-10-26,77.0,67.8,59.8,63.0,60.4,57.0,90,78,59,29.97,29.84,7,1,10,0.00
2014-10-27,76.4,66.7,56.6,62.0,58.5,54.0,91,76,58,29.92,29.84,8,1,9,0.01
2014-10-28,81.4,67.5,56.0,62.0,57.7,53.0,92,73,47,29.99,29.91,7,1,8,0.00
2014-10-29,87.2,69.5,56.3,63.0,57.6,51.0,90,69,29,30.00,29.90,7,1,10,0.00
2014-10-30,80.8,67.7,57.6,64.0,58.7,54.0,90,75,43,29.96,29.89,9,1,13,0.00
2014-10-31,72.4,66.1,59.3,63.0,58.6,56.0,90,77,58,29.94,29.80,5,0,10,0.06
2014-11-1,68.0,62.3,56.4,59.0,53.0,47.0,89,73,48,29.95,29.80,10,2,18,0.35
2014-11-2,71.3,60.3,50.8,55.0,50.2,45.0,91,72,41,30.03,29.95,9,1,14,0.06
2014-11-3,76.7,61.5,47.9,53.0,46.6,34.0,90,64,21,30.12,30.03,5,1,9,0.00
2014-11-4,81.8,63.5,47.7,51.0,38.1,16.0,84,52,9,30.16,30.04,6,1,10,0.00
2014-11-5,90.2,68.2,48.4,47.0,31.3,5.0,77,39,4,30.07,29.96,7,1,9,0.00
2014-11-6,93.8,71.8,53.5,50.0,37.1,1.0,66,38,3,30.12,30.01,5,1,9,0.00
2014-11-7,91.3,70.0,53.4,50.0,40.3,17.0,76,44,7,30.07,29.93,6,0,8,0.00
2014-11-8,90.8,68.9,51.9,57.0,47.5,36.0,85,54,15,30.01,29.90,6,1,7,0.00
2014-11-9,76.1,64.5,57.2,64.0,58.4,53.0,92,82,55,29.96,29.77,6,1,7,0.01
2014-11-10,71.8,66.0,63.4,58.0,56.4,55.0,81,72,58,29.86,29.80,4,1,8,0.00
2014-11-11,71.1,66.7,64.1,56.0,55.1,53.0,74,67,58,29.92,29.86,6,1,9,0.00
2014-11-12,70.5,63.9,55.8,57.0,54.2,51.0,85,72,53,30.00,29.90,9,1,9,0.00
2014-11-13,70.3,62.8,53.0,60.0,55.2,50.0,89,77,61,30.05,29.97,6,0,9,0.00
2014-11-14,73.8,65.7,58.5,62.0,59.5,55.0,90,81,62,30.00,29.93,8,1,8,0.00
2014-11-15,73.7,63.1,54.3,61.0,56.8,52.0,92,81,61,30.05,29.95,6,1,10,0.01
2014-11-16,77.8,63.5,53.3,58.0,26.0,-36.0,92,43,1,30.13,29.98,14,1,14,0.01
2014-11-17,81.0,65.1,52.3,45.0,21.2,-19.0,65,27,2,30.12,30.02,10,1,10,0.00
2014-11-18,80.2,62.1,49.5,47.0,30.8,7.0,76,38,7,30.13,30.04,4,0,8,0.00
2014-11-19,73.7,62.9,52.2,56.0,49.6,38.0,86,64,29,30.11,30.03,5,1,9,0.00
2014-11-20,72.6,61.5,50.1,58.0,53.7,47.0,90,77,59,30.08,29.93,7,1,11,0.00
2014-11-21,73.5,63.8,55.3,56.0,51.3,47.0,88,66,43,30.02,29.89,6,1,9,0.00
2014-11-22,71.8,61.2,49.9,61.0,54.3,46.0,89,79,63,30.09,29.97,5,1,8,0.00
2014-11-23,81.3,63.5,52.5,58.0,47.1,30.0,91,62,16,30.11,29.99,6,1,7,0.01
2014-11-24,82.8,63.8,49.4,41.0,26.9,-1.0,64,32,4,30.27,30.10,13,1,16,0.00
2014-11-25,83.4,63.0,46.3,40.0,22.6,-27.0,64,31,1,30.35,30.21,4,1,9,0.00
2014-11-26,89.3,64.6,46.3,46.0,33.4,4.0,72,42,4,30.22,30.08,4,0,6,0.00
2014-11-27,90.8,66.1,48.6,46.0,37.8,-1.0,73,45,3,30.07,29.95,5,0,6,0.00
2014-11-28,79.8,62.0,46.7,59.0,47.3,32.0,89,65,18,29.97,29.84,5,0,7,0.00
2014-11-29,71.9,61.0,47.4,59.0,53.0,44.0,90,76,56,29.90,29.81,5,1,9,0.00
2014-11-30,71.1,64.8,61.1,63.0,57.8,53.0,90,78,65,30.07,29.86,9,2,14,0.24
2014-12-1,71.5,64.1,58.2,62.0,58.2,56.0,92,82,60,30.13,29.98,3,0,6,0.03
2014-12-2,63.0,60.6,58.7,59.0,57.2,55.0,93,89,75,29.97,29.85,10,2,13,1.13
2014-12-3,67.2,64.2,60.7,65.0,62.2,59.0,93,93,92,29.97,29.87,3,1,5,0.92
2014-12-4,72.2,65.7,58.9,63.0,59.1,56.0,93,80,66,30.04,29.93,8,1,10,0.01
2014-12-5,71.2,62.2,55.9,60.0,57.2,54.0,93,84,63,30.11,30.01,3,0,3,0.00
2014-12-6,74.0,63.5,55.8,62.0,57.0,54.0,93,81,49,30.18,30.11,7,1,9,0.01
2014-12-7,77.2,63.3,52.6,59.0,54.2,50.0,92,75,38,30.16,30.05,5,0,10,0.01
2014-12-8,82.1,65.0,54.4,59.0,52.4,46.0,89,68,28,30.07,29.98,6,0,8,0.00
2014-12-9,77.3,62.4,50.4,59.0,52.9,48.0,92,74,40,30.09,29.95,5,0,10,0.01
2014-12-10,71.6,61.7,52.3,61.0,56.5,50.0,92,83,59,30.01,29.91,4,0,7,0.00
2014-12-11,69.3,64.1,60.1,59.0,57.1,54.0,91,78,64,29.97,29.86,13,2,16,0.00
2014-12-12,66.1,60.4,53.7,60.0,53.8,51.0,92,80,60,30.04,29.79,15,3,27,1.71
2014-12-13,68.3,57.0,48.9,53.0,47.2,40.0,92,73,36,30.11,30.04,5,0,12,0.01
2014-12-14,68.0,55.2,44.8,52.0,47.9,42.0,92,78,49,30.12,30.02,6,0,8,0.00
2014-12-15,67.0,56.3,46.1,53.0,48.6,44.0,92,77,51,30.06,29.93,7,1,9,0.01
2014-12-16,62.8,58.7,55.3,56.0,52.8,50.0,89,81,68,30.00,29.92,6,1,9,0.26
2014-12-17,66.9,58.2,51.4,55.0,49.9,45.0,91,75,50,30.08,29.92,8,1,16,0.32
2014-12-18,66.1,55.9,47.2,53.0,49.0,45.0,91,79,53,30.19,30.07,5,0,7,0.00
2014-12-19,68.9,57.3,48.0,53.0,49.4,46.0,92,77,49,30.21,30.10,5,0,9,0.01
2014-12-20,66.0,57.6,48.8,56.0,51.8,46.0,92,82,64,30.17,30.08,4,0,5,0.00
2014-12-21,69.7,59.7,51.9,59.0,53.8,48.0,92,81,64,30.13,30.00,6,0,6,0.00
2014-12-22,76.2,60.0,48.8,60.0,53.8,47.0,93,82,44,30.03,29.90,6,0,7,0.01
2014-12-23,86.9,64.0,49.4,61.0,51.9,42.0,93,70,21,30.05,29.95,4,0,6,0.01
2014-12-24,77.2,61.9,48.9,57.0,47.3,36.0,88,64,23,30.04,29.79,5,1,9,0.00
2014-12-25,68.9,59.7,46.0,57.0,30.6,11.0,87,39,11,29.90,29.74,10,2,16,0.00
2014-12-26,66.9,53.7,39.1,30.0,19.9,0.0,68,33,7,30.18,29.90,12,2,14,0.00
2014-12-27,65.5,53.5,39.7,37.0,24.4,13.0,76,38,14,30.31,30.17,8,1,16,0.00
2014-12-28,64.4,50.2,38.2,42.0,34.8,23.0,82,60,23,30.27,30.13,6,1,8,0.00
2014-12-29,64.0,51.1,39.1,49.0,43.1,36.0,87,75,55,30.14,30.00,5,0,7,0.00
2014-12-30,61.9,52.8,45.1,47.0,41.7,31.0,90,68,42,30.01,29.84,10,2,20,0.04
2014-12-31,58.4,49.7,39.8,34.0,24.2,9.0,70,40,16,30.03,29.89,6,1,12,0.00
2015-1-1,60.7,46.6,34.6,40.0,33.6,27.0,84,63,34,30.14,30.03,4,1,7,0.00
2015-1-2,61.7,48.2,35.8,47.0,39.4,32.0,88,73,48,30.15,30.04,7,1,9,0.00